COSMOS 1275 DEB

Satellite information

Favourite Embed

Satellite Type and Status

DEBRISIN ORBIT

Key statistics

Satellite COSMOS 1275 DEB at a glance.

Uptime

16264

Days in orbit

Revolutions

≈ 13.7

Per day

Orbit

LEO

Low Earth Orbit

Inclination

83.0

Latest

Satellite identification and parameters

Extended collection of information and parameters for COSMOS 1275 DEB.

Object identification

Identified? True

Debris? True

Object name: COSMOS 1275 DEB

International designator: 1981-053HE

Object number (NORAD): 13810

Object ID (CCSDS): 13810

Country: COMMONWEALTH OF INDEPENDENT STATES (CIS)

Current information (Y/N): Y

RCS size: SMALL

Orbital parameters

Period: 105.27 minutes

Inclination: 83.0119 deg

SMA: 7385.201 km

Apoapsis: 1098.357 km

Periapsis: 915.775 km

RAAN: 141.9749 deg

Eccentricy: 0.0123613

Argument of periapsis: 167.138 deg

Mean anomaly: 346.221 deg

Mean motion: 13.67915566 rev/day

Mean motion (dot): 0.00001699 rev/day2

B* drag term: 0.0018831196 1/REarth

Two-line elements (TLE)

Creation date: Dec. 13, 2025, 4:32 a.m.

Reference frame: TEME

Reference center: EARTH

Epoch: Dec. 12, 2025, 9 p.m. UTC

TLE line 0: 0 COSMOS 1275 DEB

TLE line 1: 1 13810U 81053HE 25346.87520420 .00001699 00000-0 18831-2 0 9996

TLE line 2: 2 13810 83.0119 141.9749 0123613 167.1380 346.2210 13.67915566130678

Live tracking on map

Real-time ground track for satellite COSMOS 1275 DEB.

In-orbit conjunctions

A list of the most updated potential collisions computed for object COSMOS 1275 DEB.

Target Orbit TCA Probability of collision Miss distance Type
EXPLORER 11 LEO 2024-11-02 20:29:20 0.0003607363 277.0 (m) PAYLOAD

Associated space launch

Navigation satellite providing location information for the Tsiklon-B navigation system

COSMOS 1275 DEB was lifted into orbit during the mission ‘Kosmos-3M | Parus 27’, on board a Kosmos-3M space rocket.

The launch took place on June 4, 1981, 3:41 p.m. from 132/2.

For more information about the launch, click the button.

Launch to space Kosmos-3M | Parus 27
Kosmos-3M | Parus 27

Agency: N/A

Status: Launch Successful

Launch date: June 4, 1981, 3:41 p.m. UTC

Rocket: Kosmos-3M

Launch pad: 132/2

Location: Plesetsk Cosmodrome, Russian Federation

...

Latest news about this satellite

There are no fresh news available about this satellite. Check back as we update our databases every day.


Newsletter sign-up

Weekly statistics, charts and insights to help you stay on top of the space industry.